Weather History for KACK - January, 2013

Change the Weather History Date:

Tuesday, January 29, 2013

  Actual Average Record
Temperature  
Mean Temperature 35 °F -  
Max Temperature 37 °F 38 °F 53 °F (1950)
Min Temperature 33 °F 24 °F 11 °F (1977)
Degree Days  
Heating Degree Days 30    
Moisture  
Dew Point 35 °F    
Average Humidity 98    
Maximum Humidity 100    
Minimum Humidity 93    
Precipitation  
Precipitation 0.01 in - - ()
Sea Level Pressure  
Sea Level Pressure 30.10 in    
Wind  
Wind Speed 5 mph (North)    
Max Wind Speed 12 mph    
Max Gust Speed -    
Visibility 3 miles    
Events Fog    
Averages and records for this station are not official NWS values.
T = Trace of Precipitation, MM = Missing Value Source: NWS Daily Summary

Daily Weather History Graph

Daily Weather History Graph

Search for Another Location

Airport or City:

Trip Planner

Search our weather history database for the weather conditions in past years. The results will help you decide how hot, cold, wet, or windy it might be!

Date:

Astronomy

Jan. 29, 2013 Rise Set
Actual Time 6:54 AM EST 4:53 PM EST
Civil Twilight 6:24 AM EST 5:22 PM EST
Nautical Twilight 5:51 AM EST 5:55 PM EST
Astronomical Twilight 5:18 AM EST 6:28 PM EST
Moon 7:48 PM EST (1/29) 7:47 AM EST (1/29)
Length of Visible Light 10h 58m
Length of Day
9h 59m
Waning Gibbous, 94% of the Moon is Illuminated
Jan 29
Waning Gibbous
Feb 3
Last Quarter
Feb 10
New
Feb 17
First Quarter
Feb 25
Full

Hourly Weather History & Observations

Time (EST) Temp. Windchill Dew Point Humidity Pressure Visibility Wind Dir Wind Speed Gust Speed Precip Events Conditions
12:05 AM 35.6 °F 30.7 °F 35.6 °F 100% 29.98 in 3.0 mi East 5.8 mph - N/A   Overcast
12:15 AM 35.6 °F 31.7 °F 35.6 °F 100% 29.99 in 2.5 mi East 4.6 mph - N/A   Overcast
12:53 AM 36.0 °F 33.3 °F 36.0 °F 100% 29.98 in 1.5 mi NE 3.5 mph - N/A   Overcast
1:29 AM 35.6 °F - 35.6 °F 100% 29.98 in 3.0 mi Calm Calm - N/A   Overcast
1:45 AM 35.6 °F 32.8 °F 35.6 °F 100% 29.99 in 2.5 mi NNW 3.5 mph - 0.01 in   Overcast
1:53 AM 36.0 °F 33.3 °F 36.0 °F 100% 29.99 in 3.0 mi NNE 3.5 mph - 0.01 in   Overcast
2:03 AM 35.6 °F - 35.6 °F 100% 29.99 in 1.8 mi Calm Calm - N/A   Overcast
2:15 AM 35.6 °F - 35.6 °F 100% 30.00 in 2.5 mi Calm Calm - N/A   Overcast
2:26 AM 35.6 °F - 35.6 °F 100% 30.00 in 4.0 mi Calm Calm - N/A   Overcast
2:47 AM 35.6 °F - 35.6 °F 100% 30.00 in 1.8 mi Calm Calm - N/A   Overcast
2:53 AM 36.0 °F - 36.0 °F 100% 30.00 in 1.2 mi Calm Calm - N/A   Overcast
3:08 AM 35.6 °F - 35.6 °F 100% 29.99 in 0.8 mi Calm Calm - N/A   Overcast
3:53 AM 36.0 °F 32.1 °F 35.1 °F 97% 30.01 in 0.5 mi NNW 4.6 mph - N/A Fog Fog
4:53 AM - - - N/A% 30.03 in 0.5 mi NW 4.6 mph - N/A Fog Fog
5:53 AM 35.1 °F 31.0 °F 35.1 °F 100% 30.04 in 0.5 mi NW 4.6 mph - N/A Fog Fog
6:35 AM 33.8 °F 29.6 °F 33.8 °F 100% 30.06 in 1.0 mi North 4.6 mph - N/A   Overcast
6:53 AM 35.1 °F 28.6 °F 34.0 °F 96% 30.07 in 1.0 mi NNW 8.1 mph - N/A   Overcast
7:01 AM 35.6 °F 30.7 °F 33.8 °F 93% 30.07 in 0.8 mi North 5.8 mph - N/A   Mist
7:46 AM 35.6 °F 29.9 °F 33.8 °F 93% 30.09 in 1.2 mi NNW 6.9 mph - N/A   Overcast
7:53 AM 35.1 °F 27.9 °F 34.0 °F 96% 30.09 in 1.0 mi NNW 9.2 mph - N/A   Overcast
8:13 AM 35.6 °F 29.2 °F 33.8 °F 93% 30.11 in 0.5 mi NNW 8.1 mph - N/A Fog Fog
8:26 AM 35.6 °F 28.0 °F 33.8 °F 93% 30.12 in 0.2 mi NNW 10.4 mph - N/A Fog Fog
8:35 AM 35.6 °F 28.6 °F 33.8 °F 93% 30.12 in 0.8 mi NNW 9.2 mph - N/A   Mist
8:42 AM 35.6 °F 29.2 °F 33.8 °F 93% 30.12 in 2.0 mi North 8.1 mph - N/A   Overcast
8:53 AM 35.1 °F 27.9 °F 34.0 °F 96% 30.12 in 2.0 mi North 9.2 mph - N/A   Overcast
8:55 AM 35.6 °F 28.0 °F 33.8 °F 93% 30.12 in 2.0 mi North 10.4 mph - N/A   Overcast
9:08 AM 35.6 °F 28.0 °F 33.8 °F 93% 30.13 in 2.0 mi North 10.4 mph - N/A   Overcast
9:53 AM 35.6 °F 29.2 °F 34.0 °F 94% 30.13 in 5.0 mi North 8.1 mph - N/A   Overcast
10:00 AM - - - N/A% 30.13 in 5.0 mi North 9.2 mph - N/A   Haze
10:07 AM 35.6 °F 29.2 °F 35.6 °F 100% 30.13 in 6.0 mi North 8.1 mph - N/A   Overcast
10:53 AM 35.6 °F 29.9 °F 35.1 °F 98% 30.15 in 5.0 mi North 6.9 mph - N/A   Overcast
11:09 AM 35.6 °F 29.9 °F 35.6 °F 100% 30.15 in 4.0 mi NNW 6.9 mph - N/A   Overcast
11:53 AM 35.6 °F 29.2 °F 35.1 °F 98% 30.14 in 4.0 mi NNW 8.1 mph - N/A   Overcast
12:53 PM 35.6 °F 29.2 °F 35.1 °F 98% 30.13 in 4.0 mi North 8.1 mph - N/A   Overcast
1:00 PM 35.6 °F 29.2 °F 35.6 °F 100% 30.13 in 2.0 mi North 8.1 mph - N/A   Overcast
1:53 PM 35.6 °F 30.7 °F 35.1 °F 98% 30.14 in 2.0 mi North 5.8 mph - N/A   Overcast
2:00 PM - - - N/A% 30.14 in 1.2 mi North 5.8 mph - N/A   Overcast
2:53 PM 37.4 °F 33.8 °F 36.0 °F 95% 30.16 in 1.2 mi North 4.6 mph - N/A   Overcast
3:53 PM 36.0 °F 31.1 °F 36.0 °F 100% 30.17 in 1.0 mi NNE 5.8 mph - N/A   Overcast
4:53 PM 37.4 °F - 36.0 °F 95% 30.17 in 1.8 mi Calm Calm - N/A   Overcast
4:55 PM 35.6 °F - 35.6 °F 100% 30.16 in 2.0 mi Calm Calm - N/A   Overcast
5:06 PM 35.6 °F - 35.6 °F 100% 30.17 in 1.8 mi Calm Calm - N/A   Overcast
5:53 PM 36.3 °F 32.5 °F 36.0 °F 99% 30.18 in 3.0 mi ESE 4.6 mph - N/A   Overcast
6:48 PM 35.6 °F 31.7 °F 35.6 °F 100% 30.20 in 9.0 mi SSE 4.6 mph - N/A   Overcast
6:53 PM 36.3 °F 31.6 °F 36.0 °F 99% 30.19 in 8.0 mi SE 5.8 mph - N/A   Overcast
7:53 PM 37.0 °F 32.4 °F 36.0 °F 96% 30.20 in 10.0 mi SSE 5.8 mph - N/A   Overcast
8:53 PM 37.9 °F 32.1 °F 36.0 °F 93% 30.20 in 10.0 mi SE 8.1 mph - N/A   Overcast
9:53 PM - - - N/A% 30.18 in 10.0 mi SE 9.2 mph - N/A   Overcast
10:53 PM - - - N/A% 30.17 in 10.0 mi SE 11.5 mph - N/A   Overcast
11:03 PM - - - N/A% 30.15 in 10.0 mi SE 10.4 mph - N/A   Overcast
11:53 PM - - - N/A% 30.17 in 9.0 mi ESE 10.4 mph - N/A   Overcast